Location: Dimsdale
(55.1333°N, 118.9833°W)
Time: 03:32:44
(UTC+00:00)

YUBILEINY - Visible Passes

Search period start: 07 December 2023 00:00
Search period end: 17 December 2023 00:00
Orbit: 1478 x 1508 km, 82.5° (Epoch: 06 December)

Date Brightness Start Highest point End Pass type
(mag) Time Alt. Az. Time Alt. Az. Time Alt. Az.
07 Dec ? 00:26:59 10° N 00:31:17 14° NNE 00:35:33 10° ENE visible
07 Dec ? 02:23:30 10° N 02:31:29 37° ENE 02:31:29 37° ENE visible
07 Dec ? 04:20:26 10° NNW 04:27:24 60° NW 04:27:24 60° NW visible
07 Dec ? 06:18:24 10° NNW 06:23:20 21° WNW 06:23:20 21° WNW visible
08 Dec ? 01:33:57 10° N 01:40:56 25° NE 01:42:38 24° ENE visible
08 Dec ? 03:30:42 10° N 03:38:33 69° NNE 03:38:33 69° NNE visible
08 Dec ? 05:28:05 10° NNW 05:34:29 34° WNW 05:34:29 34° WNW visible
08 Dec ? 14:48:15 10° ESE 14:53:42 18° ENE 14:59:08 10° NNE visible
09 Dec ? 00:44:26 10° N 00:49:59 18° NE 00:53:51 13° ENE visible
09 Dec ? 02:41:04 10° N 02:49:31 49° ENE 02:49:48 49° ENE visible
09 Dec ? 04:38:08 10° NNW 04:45:44 53° WNW 04:45:44 53° WNW visible
09 Dec ? 06:36:55 10° NW 06:41:16 15° WNW 06:41:40 15° WNW visible
09 Dec ? 14:04:10 10° ENE 14:05:19 10° ENE 14:06:28 10° NE visible
10 Dec ? 01:51:28 10° N 01:59:12 33° NE 02:01:07 30° ENE visible
10 Dec ? 03:48:20 10° NNW 03:57:04 84° W 03:57:04 84° W visible
10 Dec ? 05:46:05 10° NNW 05:52:41 25° WNW 05:53:01 25° WNW visible
10 Dec ? 15:03:47 10° SE 15:10:35 26° ENE 15:17:22 10° NNE visible
11 Dec ? 01:01:55 10° N 01:08:30 23° NE 01:12:33 17° E visible
11 Dec ? 02:58:38 10° N 03:07:22 66° ENE 03:08:32 60° ESE visible
11 Dec ? 04:55:54 10° NNW 05:03:47 40° W 05:04:29 39° W visible
11 Dec ? 14:17:19 10° E 14:21:58 16° ENE 14:26:36 10° NNE visible
12 Dec ? 00:12:25 10° N 00:17:27 16° NNE 00:22:27 10° ENE visible
12 Dec ? 02:09:00 10° N 02:17:17 43° ENE 02:20:11 34° ESE visible
12 Dec ? 04:06:00 10° NNW 04:14:34 63° W 04:16:10 55° SW visible
12 Dec ? 06:04:22 10° NNW 06:09:33 18° WNW 06:12:09 15° W visible
12 Dec ? 15:19:55 10° SE 15:27:38 36° E 15:35:18 10° NNE visible
13 Dec ? 01:19:25 10° N 01:26:51 29° NE 01:32:10 17° E visible
13 Dec ? 03:16:14 10° NNW 03:25:02 87° ENE 03:28:11 46° SSE visible
13 Dec ? 05:13:49 10° NNW 05:20:52 29° WNW 05:24:14 22° WSW visible
13 Dec ? 14:32:30 10° ESE 14:38:47 23° ENE 14:45:03 10° NNE visible
14 Dec ? 00:29:53 10° N 00:36:03 20° NE 00:42:10 10° E visible
14 Dec ? 02:26:33 10° N 02:35:11 58° ENE 02:41:08 22° SE visible
14 Dec ? 04:23:44 10° NNW 04:31:52 46° W 04:37:20 21° SW visible
14 Dec ? 06:23:32 10° NW 06:26:15 12° WNW 06:28:58 10° W visible
14 Dec ? 13:46:38 10° E 13:50:16 13° ENE 13:53:54 10° NE visible
15 Dec ? 01:36:57 10° N 01:45:00 39° ENE 01:52:59 10° SE visible
15 Dec ? 03:33:53 10° NNW 03:42:33 71° W 03:51:10 10° S visible
15 Dec ? 05:31:57 10° NNW 05:37:47 21° WNW 05:43:38 10° WSW visible
15 Dec ? 14:48:24 10° SE 14:55:46 31° E 15:03:06 10° NNE visible
16 Dec ? 00:47:23 10° N 00:54:28 26° NE 01:01:29 10° ESE visible
16 Dec ? 02:44:08 10° NNW 02:52:56 77° ENE 03:01:38 10° SSE visible
16 Dec ? 04:41:35 10° NNW 04:49:01 33° W 04:56:26 10° SW visible
16 Dec ? 14:01:21 10° ESE 14:07:01 19° ENE 14:12:40 10° NNE visible
